Regional Weather Roundup
Issued by NWS

Home | Current Version | Previous Version | Graphics & Text | Print | Product List | Glossary On
Versions: 1 2 3 4 5 6 7 8 9 10 11 12 13 14 15 16 17 18 19 20 21 22 23 24 25 26 27 28 29 30 31 32 33 34 35 36 37 38 39 40 41 42 43 44 45 46 47 48 49 50
000
ASUS43 KTOP 230008
RWRKS

WEATHER ROUNDUP FOR KANSAS
NATIONAL WEATHER SERVICE GOODLAND KS
700 PM CDT SAT JUL 22 2017

NOTE:  "FAIR" INDICATES FEW OR NO CLOUDS BELOW 12,000 FEET WITH NO
SIGNIFICANT WEATHER AND/OR OBSTRUCTIONS TO VISIBILITY.

KSZ001>006-013>018-027>032-041>047-230100-
NORTHWEST KANSAS

CITY           SKY/WX    TMP DP  RH WIND       PRES   REMARKS
GOODLAND       CLOUDY    83  53  35 N12       30.05R
6HR MIN TEMP:  78; 6HR MAX TEMP:  87;

HAYS           FAIR      82  67  60 N23G30    29.92R
HILL CITY      LGT RAIN  76  69  79 S7        30.00R
6HR MIN TEMP:  75; 6HR MAX TEMP: 101; 6HR PCP:  0.12;

RUSSELL        LGT RAIN  77  70  79 NE16G24   29.91R
6HR MIN TEMP:  77; 6HR MAX TEMP: 106; 6HR PCP:  0.06;

$$

KSZ061>065-074>080-084>089-230100-
SOUTHWEST KANSAS

CITY           SKY/WX    TMP DP  RH WIND       PRES   REMARKS
DODGE CITY     FAIR     100  56  23 NW12      29.89R HX  99
6HR MIN TEMP:  95; 6HR MAX TEMP: 103;

ELKHART          N/A     93  52  24 N5          N/A
GARDEN CITY    FAIR      86  64  47 N28G39    29.94R
6HR MIN TEMP:  86; 6HR MAX TEMP:  99;

LIBERAL        FAIR      98  56  24 NW9       29.90S HX  96
PRATT          PTSUNNY   99  53  21 SW9       29.83R HX  97
6HR MIN TEMP:  96; 6HR MAX TEMP: 102;

$$

KSZ066>073-081>083-090>101-230100-
SOUTHEAST KANSAS

CITY           SKY/WX    TMP DP  RH WIND       PRES   REMARKS
CHANUTE        FAIR      96  73  47 S13G22    29.78F HX 105
6HR MIN TEMP:  95; 6HR MAX TEMP: 104; 6HR PCP: TRACE;

COFFEYVILLE    FAIR      96  74  48 S13       29.79F HX 107
6HR MIN TEMP:  96; 6HR MAX TEMP: 100;

HUTCHINSON     FAIR     104  54  19 S8        29.78R HX 102
6HR MIN TEMP: 102; 6HR MAX TEMP: 108;

MEDICINE LODGE   N/A    103  55  20 S10       29.78F HX 101
NEWTON         FAIR     102  61  25 S16       29.79S HX 103
PARSONS        FAIR      95  73  48 S9        29.80F HX 104
6HR MIN TEMP:  95; 6HR MAX TEMP: 100;

WICHITA INTL   FAIR     102  62  26 SE13      29.77F HX 104
6HR MIN TEMP: 101; 6HR MAX TEMP: 107;

WICHITA JABRA  FAIR     101  61  26 S16       29.78F HX 102
6HR MIN TEMP: 100; 6HR MAX TEMP: 106; 6HR PCP: TRACE;

WINFIELD       FAIR     100  63  29 S13G21    29.79F HX 102
6HR MIN TEMP: 100; 6HR MAX TEMP: 105;

$$

KSZ007>012-019>026-033>040-048>060-102>105-230100-
NORTHEAST KANSAS

CITY           SKY/WX    TMP DP  RH WIND       PRES   REMARKS
CONCORDIA      FAIR      87  74  64 NE9       29.86R HX  95
6HR MIN TEMP:  87; 6HR MAX TEMP: 100;

EMPORIA        FAIR      98  70  40 S12       29.75F HX 105
6HR MIN TEMP:  97; 6HR MAX TEMP: 103;

LAWRENCE       FAIR      91  80  70 N7        29.77S HX 109
6HR MIN TEMP:  91; 6HR MAX TEMP: 101;

MANHATTAN      TSTM      93  69  45 N14G26    29.79R HX  98
6HR MIN TEMP:  93; 6HR MAX TEMP: 107; 6HR PCP: TRACE;

MARYSVILLE     FAIR      88  77  70 NE5       29.87R HX 100
OLATHE IND     FAIR      96  78  56 N6        29.79S HX 112
6HR MIN TEMP:  93; 6HR MAX TEMP: 100;

OLATHE EXE     FAIR      96  75  50 N6        29.79F HX 108
6HR MIN TEMP:  92; 6HR MAX TEMP:  98;

SALINA         FAIR      89  65  44 N29G40    29.79R
6HR MIN TEMP:  89; 6HR MAX TEMP: 111;

TOPEKA BILLARD FAIR      90  75  61 NW16G23   29.78R HX 100
6HR MIN TEMP:  92; 6HR MAX TEMP: 103;

TOPEKA FORBES  FAIR      94  78  60 E9        29.76F HX 110
6HR MIN TEMP:  94; 6HR MAX TEMP: 103;

$$




USA.gov is the U.S. government's official web portal to all federal, state and local government web resources and services.